Location: Arbon
(43.0005°N, 0.7472°E)
Time: 12:08:00
(UTC+00:00)

IRAS Rocket - Pass Details

Date: 22 April 2026
Orbit: 845 x 876 km, 100.1° (Epoch: 16 May)

Event Time Altitude Azimuth Distance (km) Brightness Sun altitude
Exits shadow 19:32:08 - 156° (SSE) 3,264 6.8 -8.4°
Reaches altitude 10° 19:34:09 10° 155° (SSE) 2,470 6.2 -8.7°
Maximum altitude 19:39:35 73° 71° (ENE) 888 4.2 -9.6°
Drops below altitude 10° 19:45:03 10° 348° (NNW) 2,477 7.2 -10.5°
Sets 19:47:25 0° 347° (NNW) 3,416 8.0 -10.9°
